Time,TemperatureF,DewpointF,PressureIn,WindDirection,WindDirectionDegrees,WindSpeedMPH,WindSpeedGustMPH,Humidity,HourlyPrecipIn,Conditions,Clouds,dailyrainin,SoftwareType,DateUTC
2013-01-12 00:00:00,55.0,-99.9,-100.00,SW,220,12.0,23.0,-999,0.00,,,0.03,,2013-01-12 06:00:00,
2013-01-12 00:33:00,55.0,-99.9,-100.00,SW,220,12.0,23.0,-999,0.00,,,0.03,,2013-01-12 06:33:00,
2013-01-12 00:43:00,55.0,-99.9,-100.00,SW,220,12.0,23.0,-999,0.00,,,0.03,,2013-01-12 06:43:00,
2013-01-12 00:53:00,55.0,-99.9,-100.00,SW,220,12.0,23.0,-999,0.00,,,0.03,,2013-01-12 06:53:00,
2013-01-12 01:00:00,54.0,-99.9,-100.00,SW,229,11.0,24.0,-999,0.00,,,0.02,,2013-01-12 07:00:00,
2013-01-12 01:32:00,54.0,-99.9,-100.00,SW,229,11.0,24.0,-999,0.00,,,0.02,,2013-01-12 07:32:00,
2013-01-12 01:43:00,54.0,-99.9,-100.00,SW,229,11.0,24.0,-999,0.00,,,0.02,,2013-01-12 07:43:00,
2013-01-12 01:53:00,54.0,-99.9,-100.00,SW,229,11.0,24.0,-999,0.00,,,0.02,,2013-01-12 07:53:00,
2013-01-12 02:00:00,41.0,-99.9,-100.00,West,280,12.0,26.0,-999,0.00,,,0.02,,2013-01-12 08:00:00,
2013-01-12 02:42:00,41.0,-99.9,-100.00,West,280,12.0,26.0,-999,0.00,,,0.02,,2013-01-12 08:42:00,
2013-01-12 02:53:00,41.0,-99.9,-100.00,West,280,12.0,26.0,-999,0.00,,,0.02,,2013-01-12 08:53:00,
2013-01-12 03:00:00,36.0,-99.9,-100.00,West,275,13.0,32.0,-999,0.00,,,0.01,,2013-01-12 09:00:00,
2013-01-12 03:33:00,36.0,-99.9,-100.00,West,275,13.0,32.0,-999,0.00,,,0.01,,2013-01-12 09:33:00,
2013-01-12 03:43:00,36.0,-99.9,-100.00,West,275,13.0,32.0,-999,0.00,,,0.01,,2013-01-12 09:43:00,
2013-01-12 03:53:00,36.0,-99.9,-100.00,West,275,13.0,32.0,-999,0.00,,,0.01,,2013-01-12 09:53:00,
2013-01-12 04:00:00,34.0,-99.9,-100.00,West,268,10.0,21.0,-999,0.00,,,0.01,,2013-01-12 10:00:00,
2013-01-12 04:43:00,34.0,-99.9,-100.00,West,268,10.0,21.0,-999,0.00,,,0.01,,2013-01-12 10:43:00,
2013-01-12 04:53:00,34.0,-99.9,-100.00,West,268,10.0,21.0,-999,0.00,,,0.01,,2013-01-12 10:53:00,
2013-01-12 05:00:00,32.0,-99.9,-100.00,West,274,10.0,16.0,-999,0.00,,,0.01,,2013-01-12 11:00:00,
2013-01-12 05:33:00,32.0,-99.9,-100.00,West,274,10.0,16.0,-999,0.00,,,0.01,,2013-01-12 11:33:00,
2013-01-12 05:43:00,32.0,-99.9,-100.00,West,274,10.0,16.0,-999,0.00,,,0.01,,2013-01-12 11:43:00,
2013-01-12 05:53:00,32.0,-99.9,-100.00,West,274,10.0,16.0,-999,0.00,,,0.01,,2013-01-12 11:53:00,
2013-01-12 06:00:00,27.0,-99.9,-100.00,West,277,11.0,20.0,-999,0.00,,,0.01,,2013-01-12 12:00:00,
2013-01-12 06:43:00,27.0,-99.9,-100.00,West,277,11.0,20.0,-999,0.00,,,0.01,,2013-01-12 12:43:00,
2013-01-12 06:53:00,27.0,-99.9,-100.00,West,277,11.0,20.0,-999,0.00,,,0.01,,2013-01-12 12:53:00,
2013-01-12 07:00:00,25.0,-99.9,-100.00,WNW,282,10.0,19.0,-999,0.00,,,0.01,,2013-01-12 13:00:00,
2013-01-12 07:43:00,25.0,-99.9,-100.00,WNW,282,10.0,19.0,-999,0.00,,,0.01,,2013-01-12 13:43:00,
2013-01-12 07:53:00,25.0,-99.9,-100.00,WNW,282,10.0,19.0,-999,0.00,,,0.01,,2013-01-12 13:53:00,
2013-01-12 08:00:00,24.0,-99.9,-100.00,WNW,286,10.0,24.0,-999,0.00,,,0.01,,2013-01-12 14:00:00,
2013-01-12 08:33:00,24.0,-99.9,-100.00,WNW,286,10.0,24.0,-999,0.00,,,0.01,,2013-01-12 14:33:00,
2013-01-12 08:43:00,24.0,-99.9,-100.00,WNW,286,10.0,24.0,-999,0.00,,,0.01,,2013-01-12 14:43:00,
2013-01-12 08:53:00,24.0,-99.9,-100.00,WNW,286,10.0,24.0,-999,0.00,,,0.01,,2013-01-12 14:53:00,
2013-01-12 09:00:00,23.0,-99.9,-100.00,WNW,284,9.0,15.0,-999,0.00,,,0.01,,2013-01-12 15:00:00,
2013-01-12 09:34:00,23.0,-99.9,-100.00,WNW,284,9.0,15.0,-999,0.00,,,0.01,,2013-01-12 15:34:00,
2013-01-12 09:43:00,23.0,-99.9,-100.00,WNW,284,9.0,15.0,-999,0.00,,,0.01,,2013-01-12 15:43:00,
2013-01-12 09:53:00,23.0,-99.9,-100.00,WNW,284,9.0,15.0,-999,0.00,,,0.01,,2013-01-12 15:53:00,
2013-01-12 10:00:00,25.0,-99.9,-100.00,WNW,295,7.0,12.0,-999,0.00,,,0.01,,2013-01-12 16:00:00,
2013-01-12 10:33:00,25.0,-99.9,-100.00,WNW,295,7.0,12.0,-999,0.00,,,0.01,,2013-01-12 16:33:00,
2013-01-12 10:43:00,25.0,-99.9,-100.00,WNW,295,7.0,12.0,-999,0.00,,,0.01,,2013-01-12 16:43:00,
2013-01-12 10:53:00,25.0,-99.9,-100.00,WNW,295,7.0,12.0,-999,0.00,,,0.01,,2013-01-12 16:53:00,
2013-01-12 11:00:00,26.0,-99.9,-100.00,WNW,288,7.0,15.0,-999,0.00,,,0.01,,2013-01-12 17:00:00,
2013-01-12 11:33:00,26.0,-99.9,-100.00,WNW,288,7.0,15.0,-999,0.00,,,0.01,,2013-01-12 17:33:00,
2013-01-12 11:43:00,26.0,-99.9,-100.00,WNW,288,7.0,15.0,-999,0.00,,,0.01,,2013-01-12 17:43:00,
2013-01-12 11:53:00,26.0,-99.9,-100.00,WNW,288,7.0,15.0,-999,0.00,,,0.01,,2013-01-12 17:53:00,
2013-01-12 12:00:00,27.0,-99.9,-100.00,WNW,290,6.0,11.0,-999,0.00,,,0.01,,2013-01-12 18:00:00,
2013-01-12 12:33:00,27.0,-99.9,-100.00,WNW,290,6.0,11.0,-999,0.00,,,0.01,,2013-01-12 18:33:00,
2013-01-12 12:43:00,27.0,-99.9,-100.00,WNW,290,6.0,11.0,-999,0.00,,,0.01,,2013-01-12 18:43:00,
2013-01-12 12:53:00,27.0,-99.9,-100.00,WNW,290,6.0,11.0,-999,0.00,,,0.01,,2013-01-12 18:53:00,
2013-01-12 13:00:00,28.0,-99.9,-100.00,WNW,289,5.0,10.0,-999,0.00,,,0.01,,2013-01-12 19:00:00,
2013-01-12 13:43:00,28.0,-99.9,-100.00,WNW,289,5.0,10.0,-999,0.00,,,0.01,,2013-01-12 19:43:00,
2013-01-12 13:53:00,28.0,-99.9,-100.00,WNW,289,5.0,10.0,-999,0.00,,,0.01,,2013-01-12 19:53:00,
2013-01-12 14:00:00,27.0,-99.9,-100.00,WNW,295,4.0,8.0,-999,0.00,,,0.01,,2013-01-12 20:00:00,
2013-01-12 14:43:00,27.0,-99.9,-100.00,WNW,295,4.0,8.0,-999,0.00,,,0.01,,2013-01-12 20:43:00,
2013-01-12 14:53:00,27.0,-99.9,-100.00,WNW,295,4.0,8.0,-999,0.00,,,0.01,,2013-01-12 20:53:00,
2013-01-12 15:00:00,25.0,-99.9,-100.00,WNW,295,4.0,10.0,-999,0.00,,,0.01,,2013-01-12 21:00:00,
2013-01-12 15:33:00,25.0,-99.9,-100.00,WNW,295,4.0,10.0,-999,0.00,,,0.01,,2013-01-12 21:33:00,
2013-01-12 15:43:00,25.0,-99.9,-100.00,WNW,295,4.0,10.0,-999,0.00,,,0.01,,2013-01-12 21:43:00,
2013-01-12 15:53:00,25.0,-99.9,-100.00,WNW,295,4.0,10.0,-999,0.00,,,0.01,,2013-01-12 21:53:00,
2013-01-12 16:00:00,24.0,-99.9,-100.00,WNW,288,4.0,11.0,-999,0.00,,,0.01,,2013-01-12 22:00:00,
2013-01-12 16:33:00,24.0,-99.9,-100.00,WNW,288,4.0,11.0,-999,0.00,,,0.01,,2013-01-12 22:33:00,
2013-01-12 16:44:00,24.0,-99.9,-100.00,WNW,288,4.0,11.0,-999,0.00,,,0.01,,2013-01-12 22:44:00,
2013-01-12 16:53:00,24.0,-99.9,-100.00,WNW,288,4.0,11.0,-999,0.00,,,0.01,,2013-01-12 22:53:00,
2013-01-12 17:00:00,23.0,-99.9,-100.00,NW,304,4.0,11.0,-999,0.00,,,0.01,,2013-01-12 23:00:00,
2013-01-12 17:43:00,23.0,-99.9,-100.00,NW,304,4.0,11.0,-999,0.00,,,0.01,,2013-01-12 23:43:00,
2013-01-12 17:53:00,23.0,-99.9,-100.00,NW,304,4.0,11.0,-999,0.00,,,0.01,,2013-01-12 23:53:00,
2013-01-12 18:00:00,22.0,-99.9,-100.00,WNW,300,5.0,12.0,-999,0.00,,,0.01,,2013-01-13 00:00:00,
2013-01-12 18:33:00,22.0,-99.9,-100.00,WNW,300,5.0,12.0,-999,0.00,,,0.01,,2013-01-13 00:33:00,
2013-01-12 18:43:00,22.0,-99.9,-100.00,WNW,300,5.0,12.0,-999,0.00,,,0.01,,2013-01-13 00:43:00,
2013-01-12 18:53:00,22.0,-99.9,-100.00,WNW,300,5.0,12.0,-999,0.00,,,0.01,,2013-01-13 00:53:00,
2013-01-12 19:00:00,22.0,-99.9,-100.00,WNW,286,5.0,10.0,-999,0.00,,,0.01,,2013-01-13 01:00:00,
2013-01-12 19:43:00,22.0,-99.9,-100.00,WNW,286,5.0,10.0,-999,0.00,,,0.01,,2013-01-13 01:43:00,
2013-01-12 19:53:00,22.0,-99.9,-100.00,WNW,286,5.0,10.0,-999,0.00,,,0.01,,2013-01-13 01:53:00,
2013-01-12 20:00:00,22.0,-99.9,-100.00,WNW,295,3.0,8.0,-999,0.00,,,0.00,,2013-01-13 02:00:00,
2013-01-12 20:43:00,22.0,-99.9,-100.00,WNW,295,3.0,8.0,-999,0.00,,,0.00,,2013-01-13 02:43:00,
2013-01-12 20:53:00,22.0,-99.9,-100.00,WNW,295,3.0,8.0,-999,0.00,,,0.00,,2013-01-13 02:53:00,
2013-01-12 21:00:00,21.0,-99.9,-100.00,WNW,303,6.0,17.0,-999,0.00,,,0.00,,2013-01-13 03:00:00,
2013-01-12 21:33:00,21.0,-99.9,-100.00,WNW,303,6.0,17.0,-999,0.00,,,0.00,,2013-01-13 03:33:00,
2013-01-12 21:43:00,21.0,-99.9,-100.00,WNW,303,6.0,17.0,-999,0.00,,,0.00,,2013-01-13 03:43:00,
2013-01-12 21:53:00,21.0,-99.9,-100.00,WNW,303,6.0,17.0,-999,0.00,,,0.00,,2013-01-13 03:53:00,
2013-01-12 22:00:00,20.0,-99.9,-100.00,WNW,299,5.0,12.0,-999,0.00,,,0.00,,2013-01-13 04:00:00,
2013-01-12 22:33:00,20.0,-99.9,-100.00,WNW,299,5.0,12.0,-999,0.00,,,0.00,,2013-01-13 04:33:00,
2013-01-12 22:43:00,20.0,-99.9,-100.00,WNW,299,5.0,12.0,-999,0.00,,,0.00,,2013-01-13 04:43:00,
2013-01-12 22:53:00,20.0,-99.9,-100.00,WNW,299,5.0,12.0,-999,0.00,,,0.00,,2013-01-13 04:53:00,
2013-01-12 23:00:00,19.0,-99.9,-100.00,WNW,288,6.0,16.0,-999,0.00,,,0.00,,2013-01-13 05:00:00,
2013-01-12 23:33:00,19.0,-99.9,-100.00,WNW,288,6.0,16.0,-999,0.00,,,0.00,,2013-01-13 05:33:00,
2013-01-12 23:42:00,19.0,-99.9,-100.00,WNW,288,6.0,16.0,-999,0.00,,,0.00,,2013-01-13 05:42:00,
2013-01-12 23:53:00,19.0,-99.9,-100.00,WNW,288,6.0,16.0,-999,0.00,,,0.00,,2013-01-13 05:53:00,